Wind_Speed
12 13 12 10 8 5 4 4 4 5 4 3 2 2 1 1 1 1 2 2 2 1 1 1 2 3 3 4 4 4 4 4 3 3 3 3 4 4 5 5 6 7 7 8 8 9 9 9 9 9 10 11 12 12 13 13 14 15 16 16 17 18 19
11 12 11 10 9 6 5 5 4 3 3 3 3 2 3 3 3 3 3 2 2 2 2 2 2 2 2 3 3 3 3 3 4 4 5 5 6 6 7 8 8 9 10 10 10 11 11 11 11 12 12 13 13 14 15 15 15 16 16 17 18 19 20
8 10 10 11 11 8 7 7 5 4 4 4 3 3 4 5 5 5 5 4 4 5 5 4 4 4 5 4 4 4 5 5 6 7 7 8 8 9 9 10 11 11 12 12 12 13 13 13 14 15 15 15 15 16 16 17 17 17 18 19 20 21 22
6 8 12 14 13 11 10 8 6 6 5 5 4 4 5 5 6 6 6 6 6 6 7 7 7 7 7 7 7 7 8 8 9 9 10 10 11 11 12 12 13 13 14 14 14 15 15 16 16 17 18 18 18 19 19 19 20 20 21 22 23 24 25
9 12 15 16 16 14 12 9 7 7 6 6 5 5 6 7 7 8 7 7 7 7 8 9 9 10 10 10 10 11 11 11 12 12 12 13 14 14 15 15 16 16 16 17 17 17 18 19 19 20 21 22 22 23 23 24 24 25 25 26 27 28 28
9 14 17 18 17 16 13 10 9 8 7 7 7 7 8 8 9 9 9 9 9 9 10 11 11 12 12 13 13 13 13 14 14 15 15 16 16 17 17 18 18 19 19 20 20 20 21 22 22 23 24 25 26 27 27 28 28 29 29 30 30 31 31
6 10 14 15 15 17 15 12 10 9 8 8 9 9 10 10 10 10 10 10 10 10 11 12 12 13 14 14 15 15 15 16 17 17 18 18 19 19 20 20 21 21 21 22 22 23 23 24 25 25 27 28 28 29 30 31 32 32 32 32 33 33 33
6 6 7 8 11 15 15 13 11 10 10 10 11 12 12 12 12 12 12 11 11 11 12 12 13 14 14 15 16 16 17 17 18 19 19 20 21 21 22 23 23 23 24 24 25 25 26 27 27 28 29 30 31 32 32 33 34 34 34 34 34 34 34
4 4 5 6 8 11 12 12 12 11 12 12 13 13 13 14 14 14 13 12 12 12 12 13 14 14 15 15 16 16 17 18 18 19 20 21 22 22 23 24 24 25 26 26 27 27 28 29 30 30 31 32 32 33 34 34 34 35 35 34 34 34 34
3 3 4 6 7 9 9 11 12 11 12 12 12 13 13 13 14 14 14 13 12 13 13 13 14 15 15 15 16 16 17 18 19 20 21 21 22 23 24 24 25 26 27 27 28 29 29 30 30 31 32 33 33 34 34 34 35 35 35 34 34 34 33
3 2 3 3 5 6 7 9 10 10 10 10 10 11 11 12 13 13 13 13 14 14 14 15 15 15 15 15 16 16 17 18 19 20 21 22 23 23 24 25 26 27 28 28 29 30 30 31 31 32 33 34 34 34 34 34 34 34 34 34 34 33 34
5 3 3 2 3 4 5 5 6 6 7 7 7 8 9 10 11 12 12 13 13 14 14 15 15 15 15 15 16 16 17 18 19 20 21 22 23 24 25 27 27 28 29 30 31 31 32 32 32 33 33 33 34 34 34 34 34 34 34 34 34 34 34
4 5 5 6 6 5 4 5 5 6 6 6 7 7 8 9 10 11 11 12 13 14 14 15 15 16 16 17 17 18 18 19 20 21 22 23 24 25 26 27 27 28 29 29 30 30 31 32 32 32 33 33 33 33 33 34 34 34 34 34 34 34 35
4 6 8 9 8 7 7 7 7 7 7 7 8 8 9 9 10 11 11 12 13 13 14 15 15 16 16 16 17 17 18 19 19 20 21 22 23 23 24 25 26 26 27 28 29 30 30 31 31 32 32 32 32 32 32 33 33 34 34 34 35 35 35
6 8 9 10 10 9 9 8 8 8 7 7 8 8 8 9 10 10 11 11 12 12 13 14 14 15 15 15 15 15 16 17 18 19 20 21 22 23 24 25 25 26 27 27 28 29 30 30 31 31 32 32 32 32 32 32 33 34 34 35 36 37 37
7 8 7 8 8 8 9 9 8 8 7 7 8 8 9 10 10 11 11 11 12 12 13 14 15 15 16 16 15 15 16 17 18 19 20 21 23 23 24 25 25 26 26 27 28 28 29 30 30 31 31 31 31 31 32 32 33 34 35 36 37 38 38
5 4 3 3 5 6 7 8 8 8 8 9 10 10 11 11 12 12 12 12 12 13 13 14 15 15 16 16 16 16 16 17 18 19 20 21 22 23 24 24 25 25 26 27 27 28 29 29 30 30 30 30 31 31 32 33 34 35 36 37 37 38 38
3 3 2 2 2 4 5 7 8 9 9 10 10 11 12 12 12 13 13 13 13 13 14 15 15 16 17 17 16 16 16 18 19 20 20 22 23 24 24 25 25 26 26 27 28 28 29 29 29 30 30 31 32 33 34 35 36 36 37 37 37 37 38
6 5 5 5 3 3 5 6 7 8 9 11 11 11 11 11 12 13 13 14 14 14 15 15 16 17 18 18 17 17 18 19 20 21 22 23 24 24 25 26 26 27 27 27 28 28 29 29 30 30 31 32 33 35 36 36 37 37 37 38 38 38 38
10 6 6 6 5 5 5 7 7 7 8 10 11 11 11 12 13 14 15 16 16 15 15 14 15 17 18 19 19 19 20 20 21 22 24 25 25 25 26 26 27 27 28 28 28 29 29 30 31 32 33 34 36 36 37 38 38 38 39 39 39 39 40
9 7 7 8 8 7 6 6 5 4 7 10 11 12 12 14 15 15 16 16 15 14 14 13 15 17 19 20 21 21 22 21 22 24 25 26 26 26 27 27 28 28 28 28 29 30 30 31 32 34 35 36 37 38 38 39 39 40 40 40 40 41 41
10 7 7 9 8 6 6 6 6 6 8 11 12 14 15 17 18 18 17 15 14 13 13 15 16 19 21 21 22 23 23 23 24 25 26 26 27 27 28 28 28 29 29 29 30 30 31 32 34 36 37 38 39 39 39 40 40 41 41 41 41 42 42
10 7 6 6 6 6 6 8 8 8 11 12 14 16 17 17 17 17 15 15 15 15 16 18 20 22 23 24 24 24 24 24 25 26 26 27 27 27 28 28 29 29 30 30 31 32 33 35 37 38 39 40 41 41 41 41 42 42 43 43 43 43 44
7 5 5 5 7 8 8 10 11 12 14 15 16 16 16 16 16 17 19 21 21 20 19 20 22 23 24 24 25 25 25 25 26 26 26 27 27 27 28 28 29 30 30 31 32 34 36 38 39 40 41 41 41 41 42 42 43 44 44 44 45 45 46
7 5 6 8 10 9 9 11 12 11 12 14 15 15 16 17 18 20 22 24 24 23 22 23 23 24 24 24 24 25 25 25 26 26 26 27 27 28 28 29 30 31 31 33 34 36 38 40 40 40 41 41 41 42 42 43 44 45 45 46 46 47 47
8 6 9 12 12 9 10 13 14 12 13 14 15 16 18 20 21 22 23 24 24 25 25 25 25 25 24 24 24 25 25 25 26 26 27 27 28 29 29 30 31 32 33 35 37 39 39 40 40 40 41 41 42 42 43 44 45 46 46 47 47 48 48
11 9 11 12 10 9 12 15 17 18 18 18 18 19 20 22 23 23 24 25 26 26 25 25 25 25 25 25 25 25 25 26 27 28 28 29 29 30 30 31 32 34 36 38 39 39 39 39 40 40 41 42 43 43 44 45 45 46 47 47 47 47 47
13 12 12 11 10 10 13 16 18 19 19 18 18 19 20 22 23 23 24 24 25 26 25 25 26 26 26 26 26 26 27 27 29 29 30 30 30 31 32 33 35 37 38 38 38 39 39 39 40 40 42 42 43 44 44 45 45 46 47 47 46 46 46
10 9 10 11 10 11 14 17 17 17 18 17 18 19 21 22 22 23 23 23 24 25 26 26 26 27 27 27 27 28 28 29 30 30 31 31 32 33 34 36 38 39 39 38 38 38 39 40 40 40 41 42 43 44 45 45 46 45 46 46 46 46 46
9 10 11 11 11 13 16 17 17 17 19 20 21 22 22 22 22 23 24 24 25 25 26 26 27 27 28 29 29 30 30 31 31 31 31 32 33 35 37 38 39 38 38 38 38 38 39 40 40 40 41 41 43 43 44 45 45 46 46 47 47 47 47
11 14 14 14 15 16 18 20 19 19 21 22 22 22 22 22 23 24 24 25 26 26 26 27 27 27 28 29 29 30 31 31 32 32 33 34 36 37 38 38 37 37 37 37 37 38 39 39 40 40 41 42 42 42 43 43 45 46 47 47 48 48 48
14 15 15 16 18 19 21 22 23 22 22 22 22 22 22 23 23 23 24 25 26 27 27 27 27 28 28 29 30 30 31 31 32 33 35 37 38 38 37 36 36 36 36 37 38 38 39 39 40 41 41 41 41 42 42 43 44 46 47 47 48 48 48
17 17 17 19 20 21 22 22 22 22 22 22 22 22 22 22 22 23 24 25 26 27 27 28 28 29 29 29 30 30 31 32 33 35 37 38 37 37 36 36 36 36 37 38 38 39 39 40 41 41 41 41 41 41 42 42 43 45 46 47 48 49 48
19 20 20 21 21 21 21 21 21 22 21 21 21 22 22 23 24 25 25 26 26 27 27 28 29 29 29 30 30 30 31 33 34 35 36 36 35 34 34 35 36 37 37 38 38 39 40 41 41 41 41 41 42 42 42 42 42 45 47 48 49 48 46
19 19 19 20 20 19 19 19 20 20 20 21 21 22 23 24 25 25 26 26 27 27 27 28 29 30 30 31 30 32 33 34 34 34 33 33 33 33 34 35 36 36 37 38 39 40 41 41 41 42 42 43 43 43 43 43 45 47 49 49 48 44 41
18 17 18 18 18 18 18 19 19 20 21 22 23 24 24 25 25 26 26 26 27 27 28 29 30 31 31 31 32 33 34 34 33 32 31 31 32 33 35 35 36 36 37 38 39 40 40 41 41 42 43 43 43 43 45 46 48 49 50 48 42 38 36
17 18 18 18 18 18 19 19 21 22 23 24 25 25 25 25 25 26 26 27 27 28 29 30 31 31 32 32 33 33 33 32 31 30 31 31 33 34 34 35 35 36 38 39 39 39 40 40 41 42 42 42 42 43 45 48 51 51 48 42 37 33 32
18 18 19 19 19 20 21 22 23 24 25 25 25 25 25 25 25 26 27 28 28 29 30 31 31 31 32 33 32 31 30 29 29 30 30 32 33 33 33 33 35 36 37 38 38 38 39 40 41 41 40 41 41 43 46 49 50 47 42 37 34 33 31
Wind_Direction
219 222 213 206 209 199 187 187 156 143 159 171 190 213 229 251 274 310 329 359 21 17 38 110 134 145 158 168 175 178 178 185 190 198 212 221 233 246 258 268 273 278 281 284 286 289 292 296 298 301 302 304 304 305 308 310 313 315 317 317 318 318 318
216 221 212 203 209 211 203 206 193 174 190 205 219 244 262 263 268 274 278 290 292 290 286 275 257 231 215 207 207 208 210 220 228 237 245 250 257 263 269 275 279 283 285 288 289 290 292 293 293 294 294 295 297 299 301 303 305 307 309 310 311 313 313
212 214 211 208 208 207 207 210 206 202 214 223 232 252 268 272 277 276 275 280 281 283 284 279 275 268 260 253 249 248 248 249 252 256 262 266 269 274 277 279 281 282 284 286 287 287 288 289 290 290 290 290 291 292 293 295 297 298 300 303 304 306 308
185 193 201 206 207 208 210 208 204 210 220 230 241 255 268 276 277 275 274 275 278 281 282 280 277 275 273 270 267 266 265 265 267 269 271 274 276 277 278 279 280 281 283 284 284 285 285 285 285 285 285 285 285 286 287 289 291 293 296 298 300 301 303
162 180 194 199 202 206 208 204 204 214 220 232 248 259 269 274 274 274 274 273 276 279 280 281 279 276 275 273 272 272 272 274 275 276 277 278 279 280 281 282 283 283 284 283 283 283 282 282 282 282 283 284 286 287 288 290 292 293 295 296 297 298 298
170 179 189 194 200 204 206 202 204 214 221 232 244 253 262 268 273 276 277 278 279 281 282 282 281 279 277 277 276 276 277 278 279 279 280 280 280 280 281 281 282 282 282 281 281 282 282 283 284 285 286 287 288 289 289 290 290 291 292 293 293 294 294
210 189 188 194 200 204 207 204 204 214 224 233 243 251 257 260 267 273 275 278 278 278 279 278 278 277 276 276 275 275 275 276 276 277 277 277 277 277 277 278 278 279 279 280 281 282 283 284 284 285 285 285 286 287 287 288 288 289 290 290 290 290 291
233 218 200 199 206 212 212 207 207 219 228 235 242 248 252 256 261 266 270 274 275 276 276 275 276 275 274 274 274 274 274 274 275 276 276 276 276 276 277 277 277 278 279 280 281 282 282 283 283 283 283 284 284 285 286 287 287 288 288 288 288 289 289
220 235 224 218 224 227 224 216 214 224 232 238 242 246 249 252 255 260 264 268 272 276 278 279 279 278 277 277 276 276 277 276 277 277 277 278 278 279 279 280 280 281 282 283 283 284 284 284 284 284 284 285 285 286 286 286 286 286 287 287 288 289 290
175 211 224 236 242 241 237 228 224 229 236 239 242 243 246 247 249 253 256 260 264 268 272 273 274 274 274 275 276 277 278 278 280 280 281 282 283 283 284 285 285 285 285 285 285 285 285 285 285 285 285 285 285 285 286 286 287 288 288 289 290 291 291
115 152 200 232 244 239 236 230 227 232 237 239 241 242 244 245 246 248 249 253 257 261 265 268 269 272 273 274 277 279 281 282 283 285 286 286 287 288 288 288 288 287 286 286 285 285 285 285 285 285 285 285 286 286 287 288 289 290 291 292 292 292 292
109 133 157 173 203 214 222 224 225 230 233 238 242 242 244 246 246 248 249 252 257 260 264 267 268 271 274 276 279 281 282 284 284 286 287 287 288 288 288 288 287 287 286 286 286 286 286 286 287 287 287 288 289 290 291 291 292 292 292 292 292 291 291
130 157 168 168 177 187 203 212 214 222 230 237 243 245 249 251 251 255 257 258 262 265 267 270 273 274 276 277 279 280 282 283 284 285 286 286 287 287 286 286 286 286 286 287 287 288 289 289 289 290 290 291 291 292 293 293 293 292 292 291 290 289 289
172 186 185 178 181 184 192 207 212 219 227 233 242 249 252 256 259 261 263 264 266 269 270 272 274 275 276 278 280 282 283 284 286 287 288 289 288 288 288 288 288 289 290 291 291 291 292 292 292 292 293 293 293 292 291 291 291 290 290 290 288 287 286
233 220 201 191 193 189 191 204 210 213 223 233 244 252 255 261 266 265 267 269 270 272 274 276 278 279 281 283 285 289 290 291 293 294 295 295 293 293 293 293 293 294 294 294 293 293 293 293 293 293 292 292 292 290 289 289 288 288 288 288 288 287 287
250 236 209 199 199 195 198 208 216 222 234 244 248 255 259 261 264 265 268 270 272 276 278 280 283 285 287 290 292 295 296 296 297 297 297 297 295 295 296 296 296 296 295 294 293 292 292 292 292 291 290 290 289 289 288 288 288 288 289 289 289 289 289
265 248 210 205 201 203 211 219 232 238 243 250 254 257 259 259 262 266 268 271 273 276 279 282 286 289 292 296 300 302 302 299 299 299 299 298 298 299 300 299 298 297 295 294 293 293 292 292 291 291 290 290 290 290 291 291 291 292 291 291 291 291 290
310 307 308 296 236 234 244 240 245 248 249 253 254 255 260 262 266 269 271 275 278 280 284 288 292 295 298 302 306 308 307 305 304 303 302 302 302 302 302 301 299 297 296 295 295 295 294 293 292 292 292 293 294 294 295 295 294 294 293 292 291 290 290
346 347 329 319 289 275 273 254 247 248 252 254 254 258 264 266 270 275 279 282 284 286 290 294 298 301 304 308 312 312 311 309 308 307 307 306 306 305 304 302 300 299 298 298 297 296 295 294 293 294 295 296 297 297 297 296 295 294 293 292 291 290 289
315 313 303 293 276 277 272 253 245 243 250 257 258 262 270 276 280 283 284 285 287 289 293 298 303 307 311 315 316 316 314 312 309 310 311 310 309 307 305 303 301 301 300 299 298 296 295 295 296 297 298 298 299 298 298 297 295 294 293 293 292 292 291
298 295 281 266 264 271 268 266 275 282 281 281 277 277 281 283 281 278 277 279 282 287 294 301 306 312 318 320 319 317 317 314 313 312 311 310 309 307 305 304 303 302 301 299 297 296 296 297 298 299 300 300 299 299 298 297 295 295 295 295 295 294 293
286 281 261 258 265 273 280 294 313 322 316 307 293 282 276 272 272 270 270 273 276 285 299 306 309 315 320 321 319 319 320 318 315 313 312 310 309 307 305 304 303 301 299 298 297 298 298 300 301 301 301 301 300 299 298 297 297 297 296 296 296 295 294
276 264 255 265 276 283 297 305 301 302 311 308 292 281 276 276 280 283 286 294 297 303 313 315 315 319 322 321 320 321 321 319 316 314 312 310 308 306 304 303 301 300 299 299 300 301 301 302 303 303 302 301 301 300 300 299 299 298 298 298 297 296 295
282 289 298 290 284 290 303 303 289 281 283 284 287 295 300 303 306 304 307 312 312 313 320 322 320 323 323 322 322 322 320 319 317 314 312 309 306 304 303 302 301 301 301 302 302 303 303 304 304 303 302 302 301 301 301 301 301 300 300 300 300 299 298
304 304 294 284 285 291 295 291 283 275 273 277 291 305 310 314 317 314 313 315 314 316 322 326 325 326 326 325 324 322 320 319 316 312 308 306 305 304 304 303 303 303 303 304 304 305 305 304 304 304 303 303 303 303 303 303 302 302 302 302 301 300 299
311 291 272 271 276 283 288 289 289 292 295 298 305 310 312 317 320 318 317 318 318 319 323 327 328 327 327 325 323 322 320 317 312 308 306 306 306 306 306 305 305 305 306 306 306 306 305 305 305 305 305 305 305 305 305 304 304 304 303 302 301 300 299
306 291 271 270 279 294 302 300 300 304 308 312 318 319 318 319 320 320 320 320 320 322 324 326 326 325 324 323 321 319 316 312 309 308 309 309 309 308 308 307 308 308 308 308 307 306 306 306 306 306 306 306 306 306 306 305 304 304 303 302 301 299 298
307 298 283 286 301 311 310 308 309 310 307 308 316 320 319 319 319 321 322 320 320 322 323 323 322 321 321 320 318 316 314 312 311 311 311 310 310 310 310 309 309 309 308 308 307 307 308 308 308 308 308 307 307 306 306 305 304 303 302 301 300 299 298
309 306 289 288 299 304 304 304 306 308 306 308 317 321 320 320 320 319 320 319 320 322 321 320 320 319 319 318 316 315 314 312 312 311 311 311 311 310 310 309 309 309 309 309 310 309 309 309 309 309 309 308 308 307 306 305 304 303 302 301 301 300 299
304 304 291 286 289 293 296 296 299 308 316 321 325 324 321 321 320 319 320 321 321 321 319 318 318 317 317 317 315 314 313 312 312 312 311 311 310 310 310 310 310 311 311 311 311 310 310 310 310 309 309 308 308 307 307 306 305 303 302 302 302 301 300
303 299 294 292 293 296 299 304 312 320 324 324 324 322 320 320 320 320 321 320 319 318 317 316 315 315 314 313 312 312 312 312 312 311 310 310 310 310 310 310 310 311 310 310 310 310 310 310 310 310 309 309 308 307 306 305 304 304 304 304 304 304 303
297 294 295 299 305 308 312 317 323 325 324 322 321 319 318 318 318 318 318 317 315 314 314 313 312 311 310 310 311 311 311 311 310 309 309 310 310 310 311 310 311 311 311 311 311 311 311 311 311 311 310 309 309 307 307 306 306 306 306 306 306 306 306
302 305 308 311 314 316 318 320 321 320 319 319 317 316 316 315 315 314 313 312 310 310 310 309 309 309 310 310 311 311 310 309 309 309 310 310 310 311 311 312 312 312 313 313 313 313 312 312 312 311 311 310 309 308 308 308 308 308 308 308 308 308 307
316 318 318 316 315 315 316 317 315 314 314 314 312 312 313 312 311 310 309 308 307 306 306 307 308 309 309 309 310 308 307 307 308 309 309 310 310 311 312 313 313 314 314 314 314 313 313 313 313 313 313 312 311 310 310 310 311 311 311 311 311 309 307
320 320 316 314 314 314 313 312 310 308 308 308 308 309 309 308 308 307 306 306 305 305 307 308 308 308 308 308 307 306 306 307 308 309 309 310 311 313 313 314 315 315 316 315 315 315 315 315 315 315 315 315 314 314 314 314 314 314 314 313 312 310 308
317 316 313 311 312 310 308 306 304 303 304 304 306 306 306 306 306 305 305 305 306 307 308 307 307 306 306 305 305 305 306 308 309 310 311 312 314 315 316 317 317 317 317 317 316 317 317 317 317 316 316 317 317 317 317 317 317 316 316 315 314 312 311
310 309 308 307 305 303 302 302 301 302 303 303 304 305 305 305 306 306 306 306 306 307 307 305 305 305 303 303 305 306 308 310 311 312 314 315 316 317 318 318 319 318 318 318 318 317 317 317 317 317 318 318 318 318 318 317 317 317 316 315 315 315 314
302 302 302 302 301 301 302 302 302 302 303 303 304 306 306 306 306 306 306 306 305 305 304 304 303 302 302 303 306 307 310 311 312 314 316 317 318 318 318 319 319 318 318 318 318 318 318 318 318 318 319 319 318 318 318 318 318 318 317 317 318 317 316
Height
5878 5880 5882 5883 5883 5884 5885 5885 5884 5884 5886 5887 5888 5889 5890 5890 5890 5890 5889 5889 5889 5890 5891 5891 5892 5893 5894 5895 5895 5896 5896 5897 5897 5897 5898 5899 5899 5900 5900 5900 5900 5900 5900 5900 5900 5900 5900 5900 5900 5900 5900 5900 5900 5899 5899 5898 5898 5898 5897 5897 5896 5896 5895
5877 5879 5883 5883 5883 5884 5885 5885 5885 5885 5886 5887 5888 5889 5890 5890 5890 5890 5890 5890 5890 5890 5891 5891 5892 5892 5893 5894 5894 5895 5895 5896 5896 5897 5898 5898 5898 5899 5899 5899 5899 5899 5899 5899 5899 5899 5899 5899 5899 5899 5899 5899 5898 5898 5897 5897 5897 5896 5896 5895 5894 5894 5893
5877 5879 5882 5883 5883 5884 5885 5885 5885 5885 5886 5887 5888 5888 5889 5890 5890 5890 5890 5890 5890 5890 5890 5891 5891 5892 5892 5893 5893 5894 5894 5895 5895 5896 5896 5897 5897 5898 5898 5898 5898 5898 5898 5898 5898 5898 5898 5898 5898 5897 5897 5897 5897 5896 5896 5895 5895 5894 5894 5893 5892 5892 5891
5876 5878 5879 5881 5882 5883 5884 5884 5884 5884 5885 5886 5887 5888 5888 5889 5890 5890 5890 5890 5890 5890 5890 5890 5891 5891 5891 5892 5892 5893 5893 5894 5894 5895 5895 5895 5896 5896 5896 5896 5896 5896 5897 5897 5897 5897 5896 5896 5896 5896 5896 5895 5895 5895 5894 5893 5893 5892 5892 5891 5890 5889 5888
5873 5875 5877 5878 5880 5881 5882 5882 5883 5883 5884 5885 5886 5887 5887 5888 5889 5889 5889 5889 5889 5889 5890 5890 5890 5890 5890 5891 5891 5891 5892 5892 5893 5893 5893 5894 5894 5894 5895 5895 5895 5895 5895 5895 5895 5895 5895 5894 5894 5894 5894 5893 5893 5892 5891 5891 5890 5889 5888 5888 5887 5886 5885
5874 5874 5876 5878 5879 5880 5880 5881 5881 5882 5883 5884 5885 5886 5887 5887 5888 5888 5888 5888 5888 5888 5889 5889 5889 5889 5890 5890 5890 5890 5891 5891 5891 5892 5892 5892 5892 5892 5893 5893 5893 5893 5893 5893 5893 5892 5892 5892 5891 5891 5891 5890 5889 5889 5888 5888 5887 5886 5885 5884 5883 5882 5881
5876 5877 5878 5879 5879 5879 5879 5879 5880 5881 5882 5883 5884 5885 5886 5887 5887 5888 5888 5888 5887 5887 5888 5888 5888 5888 5889 5889 5889 5889 5889 5890 5890 5890 5890 5890 5890 5891 5891 5891 5891 5890 5890 5890 5890 5889 5889 5888 5888 5888 5887 5886 5886 5885 5885 5884 5883 5882 5882 5881 5880 5879 5878
5876 5878 5879 5879 5879 5880 5880 5879 5878 5880 5881 5882 5883 5884 5885 5886 5886 5887 5887 5887 5887 5887 5887 5887 5887 5888 5888 5888 5888 5888 5888 5888 5888 5888 5888 5888 5888 5888 5888 5888 5888 5888 5887 5887 5887 5886 5886 5885 5884 5884 5883 5883 5882 5881 5881 5880 5879 5878 5877 5876 5875 5874 5873
5876 5877 5877 5878 5880 5881 5881 5879 5878 5879 5880 5881 5882 5883 5884 5885 5885 5885 5885 5886 5886 5885 5886 5886 5886 5886 5887 5887 5887 5887 5887 5887 5887 5886 5886 5886 5886 5886 5885 5885 5885 5884 5884 5883 5883 5882 5882 5881 5880 5880 5879 5878 5878 5877 5876 5875 5874 5873 5872 5871 5871 5870 5869
5875 5876 5877 5878 5879 5880 5879 5879 5878 5879 5879 5881 5881 5882 5883 5883 5883 5884 5884 5884 5884 5884 5884 5885 5885 5885 5885 5885 5885 5885 5885 5884 5884 5884 5884 5883 5883 5882 5882 5882 5881 5881 5880 5880 5879 5878 5878 5877 5876 5875 5875 5874 5873 5872 5871 5870 5869 5868 5867 5866 5865 5865 5864
5875 5876 5877 5878 5878 5878 5879 5879 5879 5879 5879 5880 5880 5881 5881 5881 5881 5882 5882 5882 5882 5882 5883 5883 5883 5883 5883 5883 5883 5882 5882 5882 5881 5881 5881 5880 5880 5879 5879 5878 5878 5877 5877 5876 5875 5875 5874 5873 5872 5871 5870 5869 5868 5867 5866 5865 5864 5863 5862 5861 5860 5859 5858
5874 5875 5876 5877 5877 5878 5878 5878 5878 5878 5879 5879 5879 5879 5880 5880 5880 5880 5880 5880 5880 5880 5881 5881 5881 5881 5881 5881 5880 5880 5880 5879 5879 5879 5878 5878 5877 5876 5876 5875 5874 5874 5873 5872 5871 5870 5870 5869 5868 5867 5865 5864 5863 5862 5861 5860 5859 5858 5857 5856 5855 5854 5853
5873 5874 5875 5875 5875 5876 5876 5876 5877 5877 5877 5877 5878 5878 5878 5878 5878 5878 5878 5878 5878 5878 5878 5878 5878 5878 5878 5878 5878 5878 5877 5877 5876 5876 5875 5875 5874 5873 5872 5872 5871 5870 5869 5868 5867 5866 5865 5864 5863 5862 5861 5860 5859 5858 5856 5855 5854 5853 5852 5851 5850 5849 5848
5873 5873 5873 5873 5873 5873 5873 5874 5875 5876 5876 5876 5876 5876 5876 5876 5876 5876 5876 5876 5876 5876 5876 5876 5876 5875 5875 5875 5875 5874 5874 5874 5873 5873 5872 5871 5870 5869 5868 5868 5867 5866 5865 5864 5863 5862 5860 5859 5858 5857 5856 5855 5854 5853 5852 5851 5850 5848 5847 5846 5845 5845 5844
5874 5873 5873 5872 5872 5872 5872 5873 5874 5874 5874 5875 5875 5875 5875 5875 5874 5874 5874 5874 5874 5874 5873 5873 5873 5872 5872 5871 5871 5871 5871 5870 5870 5869 5868 5868 5867 5866 5865 5864 5863 5862 5861 5860 5858 5857 5856 5855 5854 5853 5852 5851 5850 5849 5848 5847 5845 5844 5843 5842 5840 5839 5838
5874 5874 5873 5872 5872 5872 5872 5873 5873 5873 5873 5873 5873 5873 5873 5873 5873 5872 5872 5872 5871 5871 5871 5870 5870 5869 5868 5868 5868 5868 5867 5867 5866 5865 5865 5864 5863 5862 5861 5860 5859 5858 5857 5855 5854 5853 5852 5851 5849 5849 5847 5846 5845 5844 5843 5842 5840 5839 5838 5836 5835 5833 5832
5874 5874 5873 5872 5872 5871 5871 5872 5872 5871 5871 5871 5871 5872 5871 5871 5871 5871 5871 5870 5869 5869 5868 5868 5867 5866 5866 5865 5865 5865 5864 5863 5863 5862 5861 5860 5859 5858 5857 5856 5855 5854 5852 5851 5850 5848 5847 5846 5845 5844 5843 5842 5841 5839 5838 5837 5835 5834 5832 5831 5829 5828 5826
5870 5871 5871 5870 5870 5870 5870 5870 5870 5870 5870 5870 5870 5870 5870 5870 5870 5870 5869 5868 5867 5867 5866 5866 5865 5864 5863 5862 5862 5861 5860 5860 5859 5858 5857 5856 5855 5854 5853 5852 5851 5849 5848 5846 5845 5844 5843 5842 5841 5840 5838 5837 5836 5834 5833 5831 5829 5828 5826 5825 5823 5822 5820
5867 5867 5867 5868 5868 5868 5868 5869 5869 5868 5868 5869 5869 5869 5869 5869 5868 5868 5867 5866 5865 5865 5864 5863 5862 5861 5860 5859 5858 5858 5857 5856 5855 5854 5853 5852 5851 5850 5849 5848 5846 5845 5844 5842 5841 5840 5839 5837 5836 5835 5833 5832 5830 5829 5827 5826 5824 5822 5821 5819 5818 5816 5814
5865 5865 5866 5867 5867 5868 5868 5868 5867 5867 5867 5867 5867 5867 5867 5866 5865 5865 5864 5863 5862 5861 5861 5860 5859 5857 5856 5856 5855 5854 5853 5853 5851 5850 5849 5848 5847 5846 5845 5843 5842 5841 5839 5838 5837 5835 5834 5833 5831 5830 5828 5827 5825 5824 5822 5820 5818 5816 5814 5813 5811 5809 5808
5865 5865 5865 5867 5867 5867 5867 5867 5865 5864 5864 5864 5865 5864 5864 5863 5862 5861 5860 5859 5858 5858 5857 5857 5856 5854 5853 5853 5852 5850 5850 5849 5848 5847 5845 5844 5843 5842 5840 5839 5838 5837 5835 5834 5832 5831 5829 5828 5827 5825 5823 5821 5820 5818 5816 5814 5811 5809 5808 5806 5805 5803 5801
5864 5863 5864 5865 5865 5865 5864 5863 5862 5861 5861 5861 5862 5861 5860 5858 5857 5856 5855 5855 5855 5855 5854 5853 5852 5851 5850 5849 5848 5847 5846 5845 5844 5843 5841 5840 5839 5838 5836 5835 5834 5832 5831 5830 5828 5826 5825 5823 5822 5820 5818 5816 5814 5812 5810 5807 5805 5803 5802 5800 5798 5796 5794
5861 5861 5861 5861 5862 5861 5860 5860 5860 5860 5860 5860 5860 5858 5856 5855 5854 5854 5854 5854 5853 5852 5850 5849 5848 5847 5846 5845 5843 5842 5842 5841 5840 5839 5837 5836 5835 5834 5832 5831 5830 5828 5827 5825 5823 5822 5820 5818 5816 5814 5812 5810 5807 5805 5803 5801 5799 5797 5795 5794 5792 5789 5787
5860 5859 5858 5858 5859 5859 5858 5858 5859 5859 5860 5859 5858 5857 5855 5853 5853 5853 5852 5851 5850 5848 5846 5845 5843 5842 5841 5840 5839 5838 5837 5836 5835 5835 5834 5832 5831 5830 5828 5827 5825 5824 5822 5821 5819 5817 5815 5813 5811 5808 5806 5803 5801 5799 5797 5795 5792 5790 5788 5787 5784 5782 5779
5858 5857 5857 5857 5858 5857 5856 5857 5858 5859 5859 5858 5856 5854 5850 5849 5850 5850 5848 5847 5846 5845 5843 5841 5839 5838 5837 5836 5835 5834 5833 5832 5832 5831 5830 5829 5827 5826 5824 5823 5821 5819 5818 5816 5814 5812 5810 5808 5805 5803 5800 5798 5795 5793 5791 5788 5786 5783 5782 5780 5777 5775 5772
5855 5855 5856 5856 5856 5854 5854 5855 5856 5855 5853 5851 5849 5847 5845 5845 5845 5845 5843 5842 5842 5840 5839 5837 5835 5834 5833 5832 5831 5830 5829 5829 5829 5828 5827 5825 5823 5822 5820 5818 5817 5815 5813 5811 5809 5807 5805 5802 5800 5798 5795 5792 5790 5787 5784 5782 5780 5777 5775 5773 5771 5768 5765
5851 5852 5853 5854 5853 5852 5851 5850 5849 5847 5845 5844 5843 5843 5843 5843 5842 5841 5840 5838 5837 5836 5834 5833 5832 5831 5830 5829 5828 5827 5827 5826 5825 5824 5822 5821 5819 5817 5816 5814 5812 5811 5809 5807 5804 5802 5800 5797 5795 5793 5790 5787 5784 5781 5779 5776 5774 5771 5769 5766 5764 5762 5759
5848 5848 5849 5850 5849 5848 5848 5847 5846 5845 5844 5844 5844 5844 5843 5842 5840 5839 5838 5836 5835 5833 5831 5830 5829 5828 5827 5826 5826 5825 5824 5823 5821 5820 5818 5817 5815 5813 5812 5810 5808 5806 5804 5802 5800 5797 5795 5792 5790 5787 5784 5781 5778 5776 5773 5771 5768 5765 5762 5760 5758 5755 5753
5848 5848 5848 5847 5846 5846 5846 5847 5847 5847 5846 5844 5843 5842 5841 5839 5838 5836 5835 5834 5833 5831 5829 5827 5826 5825 5824 5824 5823 5822 5820 5819 5817 5816 5814 5813 5811 5810 5808 5806 5804 5802 5800 5797 5795 5792 5790 5787 5785 5782 5779 5776 5773 5770 5767 5764 5762 5759 5756 5753 5751 5749 5746
5848 5848 5848 5847 5846 5846 5847 5848 5848 5845 5842 5839 5838 5838 5836 5835 5834 5832 5831 5831 5829 5828 5826 5825 5824 5823 5822 5820 5819 5818 5817 5815 5814 5812 5811 5810 5808 5806 5804 5802 5800 5797 5795 5793 5790 5788 5785 5783 5780 5778 5775 5772 5769 5765 5762 5758 5755 5752 5749 5747 5745 5742 5739
5846 5847 5847 5846 5846 5846 5846 5845 5841 5837 5835 5835 5835 5834 5833 5832 5830 5829 5828 5827 5826 5825 5825 5823 5822 5821 5820 5818 5817 5816 5814 5812 5811 5809 5808 5806 5805 5803 5801 5798 5796 5794 5791 5789 5786 5784 5781 5778 5776 5773 5770 5767 5764 5761 5757 5753 5750 5746 5743 5740 5737 5734 5731
5845 5845 5844 5843 5843 5843 5841 5838 5833 5831 5832 5833 5832 5831 5831 5830 5829 5828 5827 5826 5825 5824 5823 5822 5820 5819 5818 5816 5815 5813 5812 5810 5808 5806 5805 5803 5801 5799 5797 5795 5792 5790 5787 5785 5782 5779 5776 5774 5771 5768 5765 5762 5759 5756 5752 5748 5744 5741 5737 5734 5731 5727 5724
5841 5841 5839 5837 5836 5836 5835 5833 5831 5831 5832 5831 5830 5830 5829 5828 5828 5827 5826 5825 5824 5822 5821 5820 5818 5817 5815 5814 5812 5811 5809 5807 5805 5803 5801 5799 5797 5795 5793 5790 5788 5785 5783 5780 5777 5774 5771 5769 5766 5763 5760 5757 5754 5751 5747 5744 5740 5736 5732 5728 5725 5721 5717
5836 5835 5833 5832 5832 5832 5832 5832 5832 5831 5831 5830 5830 5829 5828 5828 5827 5826 5825 5824 5822 5821 5819 5817 5816 5814 5812 5811 5810 5808 5806 5805 5803 5801 5798 5796 5794 5791 5789 5787 5784 5781 5778 5776 5773 5770 5767 5764 5761 5758 5755 5752 5748 5745 5742 5739 5735 5731 5726 5722 5718 5714 5710
5832 5832 5832 5832 5832 5832 5832 5832 5832 5831 5831 5830 5829 5828 5827 5826 5825 5824 5823 5821 5820 5818 5816 5814 5813 5811 5810 5808 5807 5805 5803 5802 5800 5798 5795 5793 5790 5788 5785 5783 5780 5777 5774 5771 5768 5765 5762 5759 5756 5752 5749 5746 5742 5738 5735 5732 5729 5725 5720 5716 5712 5708 5704
5832 5832 5833 5832 5832 5832 5832 5832 5831 5830 5829 5828 5828 5827 5826 5824 5823 5822 5820 5818 5816 5815 5813 5811 5810 5808 5807 5805 5804 5802 5800 5798 5796 5794 5792 5789 5787 5784 5781 5778 5776 5773 5770 5767 5764 5761 5758 5754 5751 5748 5744 5741 5737 5733 5729 5725 5722 5718 5714 5710 5706 5703 5699
5833 5833 5832 5832 5832 5831 5831 5831 5830 5829 5828 5826 5825 5824 5823 5822 5820 5818 5817 5815 5813 5812 5810 5808 5807 5805 5804 5802 5800 5798 5796 5794 5792 5790 5788 5786 5783 5780 5778 5775 5772 5769 5767 5764 5761 5757 5754 5751 5747 5744 5740 5737 5733 5730 5725 5720 5716 5712 5708 5705 5701 5698 5695
5832 5832 5832 5831 5831 5830 5830 5829 5828 5826 5825 5824 5823 5822 5820 5819 5817 5815 5813 5812 5810 5809 5807 5806 5804 5803 5801 5799 5797 5795 5793 5791 5789 5787 5785 5782 5780 5777 5775 5772 5769 5766 5763 5760 5757 5754 5751 5747 5744 5740 5737 5733 5730 5726 5722 5717 5712 5707 5704 5700 5697 5694 5692